| time (UTC) | temp C | wind direction | speed KPH | gust KPH | rain 1hr cm | rain 24hr cm | rain mn cm | humidity % | barometer mb |
| 20260508065548 | 28 | 169 | 1.6 | 9.7 | 0.00 | 0.00 | 0.00 | 18 | 1007.7 |
| 20260508065045 | 28 | 234 | 1.6 | 9.7 | 0.00 | 0.00 | 0.00 | 17 | 1007.7 |
| 20260508064545 | 28 | 281 | 3.2 | 9.7 | 0.00 | 0.00 | 0.00 | 17 | 1007.7 |
| 20260508064047 | 28 | 221 | 1.6 | 9.7 | 0.00 | 0.00 | 0.00 | 17 | 1007.7 |
| 20260508063544 | 28 | 273 | 1.6 | 9.7 | 0.00 | 0.00 | 0.00 | 17 | 1007.8 |
| 20260508063044 | 28 | 242 | 1.6 | 9.7 | 0.00 | 0.00 | 0.00 | 18 | 1007.8 |
| 20260508062544 | 28 | 266 | 1.6 | 9.7 | 0.00 | 0.00 | 0.00 | 17 | 1007.8 |
| 20260508062044 | 28 | 259 | 1.6 | 8.0 | 0.00 | 0.00 | 0.00 | 17 | 1007.8 |
| 20260508061545 | 28 | 245 | 1.6 | 8.0 | 0.00 | 0.00 | 0.00 | 17 | 1007.8 |
| 20260508061041 | 28 | 240 | 3.2 | 8.0 | 0.00 | 0.00 | 0.00 | 17 | 1007.9 |
| 20260508060540 | 28 | 262 | 3.2 | 11.3 | 0.00 | 0.00 | 0.00 | 17 | 1007.9 |
| 20260508060042 | 29 | 283 | 4.8 | 14.5 | 0.00 | 0.00 | 0.00 | 17 | 1007.9 |
| 20260508055541 | 29 | 263 | 4.8 | 14.5 | 0.00 | 0.00 | 0.00 | 17 | 1007.9 |
| 20260508055038 | 29 | 227 | 1.6 | 9.7 | 0.00 | 0.00 | 0.00 | 17 | 1007.9 |
| 20260508054545 | 29 | 224 | 1.6 | 9.7 | 0.00 | 0.00 | 0.00 | 17 | 1007.9 |
| 20260508054037 | 29 | 237 | 0.0 | 11.3 | 0.00 | 0.00 | 0.00 | 17 | 1007.9 |
| 20260508053539 | 29 | 271 | 4.8 | 14.5 | 0.00 | 0.00 | 0.00 | 17 | 1007.9 |
| 20260508053041 | 29 | 228 | 6.4 | 16.1 | 0.00 | 0.00 | 0.00 | 17 | 1007.9 |
| 20260508052536 | 29 | 262 | 6.4 | 19.3 | 0.00 | 0.00 | 0.00 | 17 | 1007.9 |
| 20260508052035 | 29 | 261 | 4.8 | 11.3 | 0.00 | 0.00 | 0.00 | 17 | 1007.8 |
| 20260508051539 | 30 | 257 | 1.6 | 12.9 | 0.00 | 0.00 | 0.00 | 17 | 1007.8 |
| 20260508051034 | 30 | 254 | 3.2 | 14.5 | 0.00 | 0.00 | 0.00 | 16 | 1007.8 |
| 20260508050535 | 30 | 266 | 6.4 | 14.5 | 0.00 | 0.00 | 0.00 | 16 | 1007.8 |
| 20260508050033 | 30 | 284 | 6.4 | 17.7 | 0.00 | 0.00 | 0.00 | 15 | 1007.8 |
| 20260508045533 | 30 | 278 | 9.7 | 14.5 | 0.00 | 0.00 | 0.00 | 14 | 1007.8 |
| 20260508045033 | 30 | 246 | 4.8 | 14.5 | 0.00 | 0.00 | 0.00 | 13 | 1007.8 |
| 20260508044533 | 30 | 282 | 3.2 | 12.9 | 0.00 | 0.00 | 0.00 | 12 | 1007.7 |
| 20260508044033 | 30 | 281 | 3.2 | 8.0 | 0.00 | 0.00 | 0.00 | 12 | 1007.7 |
| 20260508043529 | 30 | 267 | 3.2 | 9.7 | 0.00 | 0.00 | 0.00 | 12 | 1007.7 |
| 20260508043028 | 30 | 203 | 1.6 | 9.7 | 0.00 | 0.00 | 0.00 | 11 | 1007.7 |
| 20260508042528 | 30 | 225 | 3.2 | 14.5 | 0.00 | 0.00 | 0.00 | 11 | 1007.6 |
| 20260508042027 | 31 | 279 | 6.4 | 14.5 | 0.00 | 0.00 | 0.00 | 11 | 1007.6 |
| 20260508041527 | 30 | 282 | 4.8 | 16.1 | 0.00 | 0.00 | 0.00 | 12 | 1007.5 |
| 20260508041027 | 31 | 294 | 8.0 | 16.1 | 0.00 | 0.00 | 0.00 | 11 | 1007.5 |
| 20260508040527 | 31 | 321 | 6.4 | 12.9 | 0.00 | 0.00 | 0.00 | 11 | 1007.4 |
| 20260508040030 | 31 | 318 | 6.4 | 11.3 | 0.00 | 0.00 | 0.00 | 11 | 1007.4 |
| 20260508035527 | 31 | 275 | 4.8 | 12.9 | 0.00 | 0.00 | 0.00 | 11 | 1007.3 |
| 20260508035026 | 31 | 241 | 4.8 | 12.9 | 0.00 | 0.00 | 0.00 | 12 | 1007.3 |
| 20260508034530 | 31 | 280 | 6.4 | 11.3 | 0.00 | 0.00 | 0.00 | 11 | 1007.2 |
| 20260508034025 | 31 | 283 | 3.2 | 11.3 | 0.00 | 0.00 | 0.00 | 11 | 1007.1 |
| 20260508033525 | 31 | 271 | 3.2 | 14.5 | 0.00 | 0.00 | 0.00 | 11 | 1007.0 |
| 20260508033026 | 31 | 269 | 8.0 | 14.5 | 0.00 | 0.00 | 0.00 | 11 | 1007.0 |
| 20260508032525 | 30 | 310 | 3.2 | 11.3 | 0.00 | 0.00 | 0.00 | 11 | 1006.9 |
| 20260508032025 | 31 | 272 | 4.8 | 14.5 | 0.00 | 0.00 | 0.00 | 11 | 1006.9 |
| 20260508031525 | 31 | 265 | 4.8 | 11.3 | 0.00 | 0.00 | 0.00 | 11 | 1006.8 |
| 20260508031025 | 31 | 281 | 3.2 | 12.9 | 0.00 | 0.00 | 0.00 | 11 | 1006.7 |
| 20260508030525 | 30 | 263 | 6.4 | 12.9 | 0.00 | 0.00 | 0.00 | 11 | 1006.7 |
| 20260508030027 | 31 | 251 | 3.2 | 14.5 | 0.00 | 0.00 | 0.00 | 11 | 1006.6 |
| 20260508025528 | 30 | 281 | 4.8 | 12.9 | 0.00 | 0.00 | 0.00 | 11 | 1006.5 |
| 20260508025024 | 30 | 278 | 3.2 | 9.7 | 0.00 | 0.00 | 0.00 | 11 | 1006.5 |
| 20260508024527 | 30 | 280 | 4.8 | 9.7 | 0.00 | 0.00 | 0.00 | 11 | 1006.4 |
| 20260508024024 | 31 | 286 | 1.6 | 6.4 | 0.00 | 0.00 | 0.00 | 11 | 1006.3 |
| 20260508023523 | 31 | 281 | 3.2 | 6.4 | 0.00 | 0.00 | 0.00 | 11 | 1006.3 |
| 20260508023022 | 31 | 242 | 1.6 | 8.0 | 0.00 | 0.00 | 0.00 | 11 | 1006.2 |
| 20260508022523 | 31 | 233 | 0.0 | 9.7 | 0.00 | 0.00 | 0.00 | 11 | 1006.2 |
| 20260508022020 | 31 | 202 | 1.6 | 9.7 | 0.00 | 0.00 | 0.00 | 11 | 1006.2 |
| 20260508021522 | 31 | 233 | 1.6 | 11.3 | 0.00 | 0.00 | 0.00 | 11 | 1006.2 |
| 20260508021018 | 31 | 248 | 3.2 | 11.3 | 0.00 | 0.00 | 0.00 | 10 | 1006.2 |
| 20260508020517 | 31 | 201 | 4.8 | 11.3 | 0.00 | 0.00 | 0.00 | 10 | 1006.2 |
| 20260508020017 | 32 | 214 | 1.6 | 8.0 | 0.00 | 0.00 | 0.00 | 10 | 1006.1 |
| 20260508015515 | 32 | 234 | 3.2 | 8.0 | 0.00 | 0.00 | 0.00 | 10 | 1006.1 |
| 20260508015015 | 32 | 214 | 3.2 | 8.0 | 0.00 | 0.00 | 0.00 | 10 | 1006.0 |
| 20260508014521 | 32 | 222 | 1.6 | 9.7 | 0.00 | 0.00 | 0.00 | 10 | 1006.0 |
| 20260508014015 | 32 | 219 | 1.6 | 11.3 | 0.00 | 0.00 | 0.00 | 10 | 1006.0 |
| 20260508013514 | 33 | 240 | 1.6 | 11.3 | 0.00 | 0.00 | 0.00 | 10 | 1006.0 |
| 20260508013014 | 33 | 265 | 1.6 | 9.7 | 0.00 | 0.00 | 0.00 | 9 | 1005.9 |
| 20260508012514 | 33 | 261 | 1.6 | 9.7 | 0.00 | 0.00 | 0.00 | 9 | 1005.9 |
| 20260508012015 | 33 | 165 | 1.6 | 11.3 | 0.00 | 0.00 | 0.00 | 9 | 1005.9 |
| 20260508011515 | 33 | 274 | 4.8 | 12.9 | 0.00 | 0.00 | 0.00 | 9 | 1005.9 |
| 20260508011014 | 33 | 336 | 1.6 | 12.9 | 0.00 | 0.00 | 0.00 | 9 | 1005.8 |
| 20260508010514 | 33 | 244 | 3.2 | 12.9 | 0.00 | 0.00 | 0.00 | 10 | 1005.8 |
| 20260508010013 | 33 | 192 | 3.2 | 12.9 | 0.00 | 0.00 | 0.00 | 10 | 1005.9 |
| 20260508005512 | 34 | 243 | 4.8 | 12.9 | 0.00 | 0.00 | 0.00 | 9 | 1005.9 |
| 20260508005013 | 34 | 207 | 3.2 | 11.3 | 0.00 | 0.00 | 0.00 | 9 | 1005.8 |
| 20260508004513 | 35 | 284 | 4.8 | 9.7 | 0.00 | 0.00 | 0.00 | 9 | 1005.7 |
| 20260508004013 | 34 | 156 | 1.6 | 11.3 | 0.00 | 0.00 | 0.00 | 10 | 1005.7 |
| 20260508003514 | 34 | 199 | 3.2 | 12.9 | 0.00 | 0.00 | 0.00 | 10 | 1005.7 |
| 20260508003012 | 35 | 223 | 4.8 | 12.9 | 0.00 | 0.00 | 0.00 | 10 | 1005.8 |
| 20260508002511 | 35 | 220 | 3.2 | 17.7 | 0.00 | 0.00 | 0.00 | 9 | 1005.8 |
| 20260508002011 | 35 | 248 | 4.8 | 17.7 | 0.00 | 0.00 | 0.00 | 9 | 1005.8 |
| 20260508001529 | 35 | 267 | 3.2 | 9.7 | 0.00 | 0.00 | 0.00 | 10 | 1005.8 |
| 20260508001012 | 35 | 169 | 3.2 | 12.9 | 0.00 | 0.00 | 0.00 | 10 | 1005.8 |
| 20260508000511 | 35 | 242 | 1.6 | 12.9 | 0.00 | 0.00 | 0.00 | 9 | 1005.8 |
| 20260508000009 | 35 | 271 | 6.4 | 12.9 | 0.00 | 0.00 | 0.00 | 9 | 1005.9 |
| 20260507235510 | 35 | 286 | 1.6 | 19.3 | 0.00 | 0.00 | 0.00 | 10 | 1005.9 |
| 20260507235007 | 35 | 222 | 8.0 | 19.3 | 0.00 | 0.00 | 0.00 | 10 | 1006.0 |
| 20260507234509 | 35 | 260 | 1.6 | 17.7 | 0.00 | 0.00 | 0.00 | 10 | 1006.0 |
| 20260507234008 | 35 | 296 | 6.4 | 17.7 | 0.00 | 0.00 | 0.00 | 9 | 1006.1 |
| 20260507233507 | 35 | 236 | 1.6 | 12.9 | 0.00 | 0.00 | 0.00 | 10 | 1006.0 |
| 20260507233018 | 35 | 237 | 3.2 | 12.9 | 0.00 | 0.00 | 0.00 | 9 | 1006.1 |
| 20260507232505 | 35 | 320 | 4.8 | 14.5 | 0.00 | 0.00 | 0.00 | 9 | 1006.2 |
| 20260507232006 | 35 | 226 | 1.6 | 14.5 | 0.00 | 0.00 | 0.00 | 10 | 1006.2 |
| 20260507231511 | 35 | 250 | 4.8 | 14.5 | 0.00 | 0.00 | 0.00 | 10 | 1006.2 |
| 20260507231006 | 35 | 273 | 3.2 | 14.5 | 0.00 | 0.00 | 0.00 | 10 | 1006.1 |
| 20260507230506 | 35 | 213 | 4.8 | 14.5 | 0.00 | 0.00 | 0.00 | 9 | 1006.2 |
| 20260507230013 | 35 | 254 | 6.4 | 12.9 | 0.00 | 0.00 | 0.00 | 9 | 1006.3 |
| 20260507225502 | 36 | 257 | 4.8 | 12.9 | 0.00 | 0.00 | 0.00 | 9 | 1006.4 |
| 20260507225004 | 36 | 165 | 4.8 | 12.9 | 0.00 | 0.00 | 0.00 | 9 | 1006.4 |
| 20260507224502 | 36 | 155 | 3.2 | 11.3 | 0.00 | 0.00 | 0.00 | 9 | 1006.4 |
| 20260507224001 | 35 | 153 | 0.0 | 9.7 | 0.00 | 0.00 | 0.00 | 10 | 1006.5 |
| 20260507223602 | 35 | 132 | 1.6 | 9.7 | 0.00 | 0.00 | 0.00 | 9 | 1006.6 |
| 20260507223100 | 35 | 304 | 3.2 | 9.7 | 0.00 | 0.00 | 0.00 | 9 | 1006.7 |
| 20260507222559 | 35 | 248 | 1.6 | 11.3 | 0.00 | 0.00 | 0.00 | 10 | 1006.7 |
| 20260507222058 | 35 | 287 | 3.2 | 14.5 | 0.00 | 0.00 | 0.00 | 10 | 1006.8 |
| 20260507221558 | 35 | 249 | 4.8 | 14.5 | 0.00 | 0.00 | 0.00 | 11 | 1006.9 |
| 20260507221058 | 35 | 271 | 4.8 | 12.9 | 0.00 | 0.00 | 0.00 | 9 | 1006.9 |
| 20260507220557 | 35 | 276 | 3.2 | 12.9 | 0.00 | 0.00 | 0.00 | 10 | 1007.0 |
| 20260507220056 | 35 | 256 | 6.4 | 12.9 | 0.00 | 0.00 | 0.00 | 10 | 1007.2 |
| 20260507215555 | 35 | 231 | 3.2 | 17.7 | 0.00 | 0.00 | 0.00 | 10 | 1007.3 |
| 20260507215055 | 36 | 313 | 3.2 | 14.5 | 0.00 | 0.00 | 0.00 | 10 | 1007.3 |
| 20260507214556 | 35 | 257 | 3.2 | 11.3 | 0.00 | 0.00 | 0.00 | 10 | 1007.3 |
| 20260507214053 | 35 | 95 | 4.8 | 11.3 | 0.00 | 0.00 | 0.00 | 9 | 1007.4 |
| 20260507213551 | 35 | 148 | 4.8 | 11.3 | 0.00 | 0.00 | 0.00 | 9 | 1007.5 |
| 20260507213057 | 35 | 126 | 3.2 | 11.3 | 0.00 | 0.00 | 0.00 | 9 | 1007.6 |
| 20260507212550 | 35 | 217 | 3.2 | 11.3 | 0.00 | 0.00 | 0.00 | 9 | 1007.7 |
| 20260507212048 | 35 | 287 | 3.2 | 8.0 | 0.00 | 0.00 | 0.00 | 9 | 1007.7 |
| 20260507211553 | 34 | 143 | 0.0 | 6.4 | 0.00 | 0.00 | 0.00 | 10 | 1007.8 |
| 20260507211047 | 34 | 159 | 1.6 | 8.0 | 0.00 | 0.00 | 0.00 | 10 | 1008.0 |
| 20260507210546 | 34 | 360 | 3.2 | 8.0 | 0.00 | 0.00 | 0.00 | 13 | 1008.0 |
| 20260507210046 | 35 | 288 | 3.2 | 8.0 | 0.00 | 0.00 | 0.00 | 11 | 1008.1 |
| 20260507205544 | 35 | 67 | 1.6 | 8.0 | 0.00 | 0.00 | 0.00 | 9 | 1008.2 |
| 20260507205044 | 34 | 214 | 1.6 | 8.0 | 0.00 | 0.00 | 0.00 | 11 | 1008.3 |
| 20260507204543 | 34 | 52 | 0.0 | 4.8 | 0.00 | 0.00 | 0.00 | 11 | 1008.4 |
| 20260507204042 | 34 | 338 | 0.0 | 12.9 | 0.00 | 0.00 | 0.00 | 10 | 1008.4 |
| 20260507203542 | 34 | 190 | 1.6 | 8.0 | 0.00 | 0.00 | 0.00 | 9 | 1008.5 |
| 20260507203042 | 34 | 269 | 1.6 | 8.0 | 0.00 | 0.00 | 0.00 | 9 | 1008.5 |
| 20260507202540 | 34 | 250 | 3.2 | 8.0 | 0.00 | 0.00 | 0.00 | 9 | 1008.5 |
| 20260507202038 | 33 | 134 | 1.6 | 9.7 | 0.00 | 0.00 | 0.00 | 10 | 1008.6 |
| 20260507201546 | 33 | 232 | 3.2 | 9.7 | 0.00 | 0.00 | 0.00 | 10 | 1008.7 |
| 20260507201039 | 33 | 166 | 1.6 | 9.7 | 0.00 | 0.00 | 0.00 | 10 | 1008.8 |
| 20260507200536 | 33 | 312 | 1.6 | 8.0 | 0.00 | 0.00 | 0.00 | 10 | 1008.9 |
| 20260507200042 | 33 | 195 | 1.6 | 11.3 | 0.00 | 0.00 | 0.00 | 10 | 1008.9 |
| 20260507195533 | 33 | 243 | 1.6 | 9.7 | 0.00 | 0.00 | 0.00 | 10 | 1009.0 |
| 20260507195033 | 33 | 209 | 3.2 | 8.0 | 0.00 | 0.00 | 0.00 | 11 | 1009.1 |
| 20260507194533 | 33 | 210 | 3.2 | 8.0 | 0.00 | 0.00 | 0.00 | 10 | 1009.2 |
| 20260507194031 | 33 | 244 | 1.6 | 11.3 | 0.00 | 0.00 | 0.00 | 11 | 1009.2 |
| 20260507193530 | 33 | 82 | 3.2 | 11.3 | 0.00 | 0.00 | 0.00 | 10 | 1009.3 |
| 20260507193038 | 33 | 276 | 1.6 | 8.0 | 0.00 | 0.00 | 0.00 | 10 | 1009.4 |
| 20260507192529 | 33 | 260 | 1.6 | 8.0 | 0.00 | 0.00 | 0.00 | 10 | 1009.5 |
| 20260507192027 | 33 | 134 | 1.6 | 8.0 | 0.00 | 0.00 | 0.00 | 10 | 1009.7 |
| 20260507191527 | 33 | 169 | 1.6 | 8.0 | 0.00 | 0.00 | 0.00 | 11 | 1009.8 |
| 20260507191024 | 32 | 126 | 1.6 | 9.7 | 0.00 | 0.00 | 0.00 | 11 | 1009.9 |
| 20260507190524 | 32 | 54 | 1.6 | 9.7 | 0.00 | 0.00 | 0.00 | 10 | 1009.9 |
| 20260507190025 | 32 | 258 | 1.6 | 8.0 | 0.00 | 0.00 | 0.00 | 10 | 1010.0 |